Lone Rock, WI

11:12 PM CDT on March 27, 2017 (GMT -0500)
Tri-County Regional

Weather History for KLNR - January, 2013

Change the Weather History Date:

Saturday, January 12, 2013

  Actual Average Record
Temperature  
Mean Temperature 34 °F -  
Max Temperature 48 °F 24 °F 51 °F (2006)
Min Temperature 21 °F 10 °F -7 °F (1997)
Degree Days  
Heating Degree Days 30    
Moisture  
Dew Point 23 °F    
Average Humidity 68    
Maximum Humidity 77    
Minimum Humidity 61    
Precipitation  
Precipitation 0.00 in - - ()
Sea Level Pressure  
Sea Level Pressure 29.83 in    
Wind  
Wind Speed 17 mph (West)    
Max Wind Speed 23 mph    
Max Gust Speed 39 mph    
Visibility 10 miles    
Events      
Averages and records for this station are not official NWS values.
T = Trace of Precipitation, MM = Missing Value Source: NWS Daily Summary

Daily Weather History Graph

Daily Weather History Graph

Search for Another Location

Airport or City:

Trip Planner

Search our weather history database for the weather conditions in past years. The results will help you decide how hot, cold, wet, or windy it might be!

Date:

Astronomy

Jan. 12, 2013 Rise Set
Actual Time 7:30 AM CST 4:47 PM CST
Civil Twilight 6:59 AM CST 5:19 PM CST
Nautical Twilight 6:23 AM CST 5:54 PM CST
Astronomical Twilight 5:49 AM CST 6:29 PM CST
Moon 7:47 AM CST (1/12) 6:20 PM CST (1/12)
Length of Visible Light 10h 20m
Length of Day
9h 16m
New Moon, 1% of the Moon is Illuminated
Jan 12
New Moon
Jan 18
First Quarter
Jan 26
Full
Feb 3
Last Quarter
Feb 10
New

Hourly Weather History & Observations

Time (CST) Temp. Windchill Dew Point Humidity Pressure Visibility Wind Dir Wind Speed Gust Speed Precip Events Conditions
12:56 AM 48.9 °F - 41.0 °F 74% 29.54 in 10.0 mi SSW 18.4 mph 28.8 mph N/A   Clear
1:56 AM 48.0 °F - 41.0 °F 77% 29.56 in 10.0 mi SSW 21.9 mph 28.8 mph N/A   Clear
2:56 AM 48.0 °F - 39.9 °F 74% 29.56 in 10.0 mi SSW 17.3 mph 23.0 mph N/A   Clear
3:56 AM 48.0 °F - 39.9 °F 74% 29.59 in 10.0 mi SSW 12.7 mph 23.0 mph N/A   Partly Cloudy
4:53 AM 44.6 °F 35.9 °F 37.4 °F 76% 29.64 in 8.0 mi West 23.0 mph 39.1 mph N/A   Mostly Cloudy
4:56 AM 45.0 °F 37.6 °F 37.0 °F 74% 29.64 in 8.0 mi WSW 17.3 mph 34.5 mph N/A   Mostly Cloudy
5:13 AM 44.6 °F 36.1 °F 35.6 °F 71% 29.65 in 8.0 mi WSW 21.9 mph 32.2 mph N/A   Mostly Cloudy
5:56 AM 39.9 °F 31.1 °F 30.9 °F 70% 29.70 in 10.0 mi WSW 17.3 mph 29.9 mph N/A   Scattered Clouds
6:09 AM 37.4 °F 27.5 °F 30.2 °F 75% 29.72 in 10.0 mi West 18.4 mph 25.3 mph N/A   Mostly Cloudy
6:56 AM 35.1 °F 24.8 °F 28.0 °F 76% 29.76 in 10.0 mi West 17.3 mph 26.5 mph N/A   Overcast
7:45 AM 33.8 °F 23.9 °F 24.8 °F 70% 29.81 in 10.0 mi WSW 15.0 mph 31.1 mph N/A   Scattered Clouds
7:56 AM 32.0 °F 20.1 °F 24.1 °F 73% 29.82 in 10.0 mi West 19.6 mph 31.1 mph N/A   Mostly Cloudy
8:56 AM 30.0 °F 18.3 °F 21.0 °F 69% 29.86 in 10.0 mi West 17.3 mph 27.6 mph N/A   Mostly Cloudy
9:03 AM 28.4 °F 16.6 °F 19.4 °F 69% 29.86 in 10.0 mi West 16.1 mph 26.5 mph N/A   Scattered Clouds
9:56 AM 28.0 °F 16.1 °F 17.1 °F 63% 29.90 in 10.0 mi West 16.1 mph 27.6 mph N/A   Partly Cloudy
10:56 AM 28.0 °F 16.1 °F 16.0 °F 61% 29.91 in 10.0 mi West 16.1 mph 26.5 mph N/A   Clear
11:56 AM 28.0 °F 17.0 °F 17.1 °F 63% 29.91 in 10.0 mi West 13.8 mph - N/A   Clear
12:56 PM 28.0 °F 18.1 °F 17.1 °F 63% 29.92 in 10.0 mi West 11.5 mph - N/A   Clear
1:56 PM 28.0 °F 18.1 °F 17.1 °F 63% 29.95 in 10.0 mi West 11.5 mph 19.6 mph N/A   Clear
2:56 PM 27.0 °F 15.6 °F 15.1 °F 61% 29.96 in 10.0 mi West 13.8 mph - N/A   Clear
3:56 PM 26.1 °F 15.0 °F 15.1 °F 63% 29.99 in 10.0 mi West 12.7 mph - N/A   Scattered Clouds
4:56 PM 26.1 °F 15.0 °F 16.0 °F 66% 29.99 in 10.0 mi West 12.7 mph - N/A   Partly Cloudy
5:56 PM 25.0 °F 14.8 °F 14.0 °F 63% 29.98 in 10.0 mi West 10.4 mph - N/A   Clear
6:56 PM 24.1 °F 12.5 °F 12.9 °F 62% 29.99 in 10.0 mi West 12.7 mph - N/A   Clear
7:56 PM 23.0 °F 13.9 °F 12.0 °F 63% 30.01 in 10.0 mi WNW 8.1 mph - N/A   Overcast
8:56 PM 21.9 °F 11.0 °F 12.0 °F 66% 30.03 in 10.0 mi West 10.4 mph - N/A   Overcast
9:56 PM 21.9 °F 13.4 °F 10.9 °F 63% 30.03 in 10.0 mi WNW 6.9 mph - N/A   Mostly Cloudy
10:56 PM 21.0 °F 11.4 °F 10.9 °F 65% 29.98 in 10.0 mi NW 8.1 mph - N/A   Overcast